Home > Weather > King's Lynn > Past weeks

Flag for United Kingdom Past Weather in King's Lynn, England, United Kingdom — Yesterday and Last 2 Weeks

Now
52 °F

Light rain. Mostly cloudy.


Feels Like: 48 °F
Forecast: 46 / 61 °F
Wind: 10 mph from North

Location: Marham

Current Time: May 25, 2016 at 2:10:47 PM

Latest Report: May 25, 2016 at 12:50 PM


Visibility: N/A

Pressure: 30.04 "Hg

Humidity: 88%

Dew Point: 48 °F

Location of King's LynnLocation

Past Weather in King's Lynn — Graph

°F

King's Lynn Temperature Yesterday

Maximum temperature yesterday: 57 °F (at 9:50 AM)
Minimum temperature yesterday: 41 °F (at 3:50 AM)
Average temperature yesterday: 50 °F

High & Low Weather Summary for the Past Weeks

 TemperatureHumidityPressure
High70 °F (May 12, 12:50 PM)100% (May 11, 1:50 AM)30.18 "Hg (May 11, 1:50 AM)
Low37 °F (May 15, 12:50 AM)43% (May 17, 5:50 PM)29.59 "Hg (May 12, 3:50 AM)
Average54 °F78%29.90 "Hg
* Reported May 10 12:50 PM — May 25 12:50 PM, King's Lynn, Weather by CustomWeather, © 2016

Note: Actual official high and low records may vary slightly from our data, if they occured in-between our weather recording intervals... More about our weather records

Advertising

King's Lynn Weather History for the Previous 24 Hours

Scroll right to see more
 ConditionsComfort  
Time TempWeatherWind HumidityBarometerVisibility
12:50 PM
Wed, May 25
52 °FLight rain. Mostly cloudy.10 mph88%30.04 "HgN/A
11:50 AM52 °FLight rain. Mostly cloudy.10 mph88%30.04 "Hg5 mi
10:50 AM50 °FDrizzle. Mostly cloudy.8 mph94%30.04 "Hg4 mi
9:50 AM50 °FDrizzle. Mostly cloudy.9 mph82%30.04 "Hg5 mi
8:50 AM48 °FMore clouds than sun.12 mph87%30.04 "HgN/A
7:50 AM48 °FMore clouds than sun.9 mph87%30.07 "HgN/A
6:50 AM48 °FDrizzle. Overcast.9 mph87%30.07 "HgN/A
5:50 AM48 °FMore clouds than sun.9 mph87%30.07 "HgN/A
4:50 AM48 °FDrizzle. Mostly cloudy.12 mph82%30.07 "HgN/A
3:50 AM46 °FPassing clouds.10 mph87%30.09 "HgN/A
2:50 AM48 °FPassing clouds.9 mph82%30.09 "HgN/A
1:50 AM48 °FOvercast.8 mph71%30.09 "HgN/A
12:50 AM48 °FPassing clouds.12 mph71%30.12 "HgN/A
11:50 PM
Tue, May 24
48 °FPassing clouds.14 mph71%30.12 "HgN/A
10:50 PM48 °FPassing clouds.12 mph71%30.12 "HgN/A
9:50 PM50 °FPartly sunny.14 mph62%30.12 "HgN/A
8:50 PM50 °FPartly sunny.13 mph71%30.12 "HgN/A
7:50 PM50 °FPartly sunny.14 mph71%30.15 "HgN/A
6:50 PM52 °FPartly sunny.15 mph67%30.15 "HgN/A
5:50 PM54 °FPartly sunny.17 mph67%30.15 "HgN/A
4:50 PM55 °FPartly sunny.17 mph63%30.15 "HgN/A
3:50 PM55 °FPartly sunny.17 mph63%30.15 "HgN/A
2:50 PM57 °FPartly sunny.17 mph63%30.18 "HgN/A
Weather by CustomWeather, © 2016

See weather overviewHow to use our weather pages